Lid_Strength_Index
1 2 1 1 1 1 1 1 1 0 1 0 0 1 1 1 1 2 1 1 1 1
1 1 1 1 1 1 1 0 0 0 0 1 0 0 1 1 1 1 1 1 1 1
1 1 1 1 1 1 1 0 0 0 0 0 1 1 2 1 1 1 1 1 1 1
1 1 1 1 1 1 1 2 1 1 1 1 1 1 1 1 1 1 2 1 1 1
1 1 1 1 1 1 1 1 1 1 1 1 1 0 1 1 1 1 2 1 2 1
1 1 1 1 1 1 1 1 0 1 1 1 1 1 1 1 1 1 1 1 1 1
2 1 1 1 1 1 1 1 1 1 1 1 1 1 1 1 1 1 1 1 1 1
1 2 1 1 1 1 1 1 1 1 1 1 1 2 3 2 1 1 1 1 1 1
2 2 2 2 1 1 1 1 1 1 2 1 3 5 4 3 1 1 1 2 1 3
2 2 3 2 1 1 1 2 2 2 3 5 6 6 6 3 1 1 2 2 1 3
3 4 3 3 2 2 2 2 3 5 6 6 6 7 7 4 1 2 2 3 5 6
4 4 4 4 3 2 2 4 5 6 7 7 8 8 6 3 3 4 5 5 6 7
4 4 4 3 4 4 4 5 6 7 6 7 8 8 8 4 6 8 7 8 8 6
4 4 3 2 4 5 5 6 7 7 7 8 9 10 9 8 4 5 6 7 8 8